When you browse on this site, cookies collect data to enhance your experience and personalize the content and advertising you see.
Visit our Privacy Policy to learn more. By continuing to use the site, you agree to this use of cookies and data.
  • In Romania
  • List of Countries
  • For 7 days
  • Water Temperature
  • Weather Map
  • Weather Widgets
  • user-avatar
    Login

    Hourly Weather Graz

    Today, 2 June, Tuesday

    Time Temperature Precipitation Wind Pressure Humidity
    00:00 +13°C° 0 mm 1 mps 725 mmHg 83%
    01:00 +13°C° 0 mm 1 mps 725 mmHg 79%
    02:00 +13°C° 0 mm 1 mps 724 mmHg 81%
    03:00 +12°C° 0 mm 1 mps 724 mmHg 83%
    04:00 +12°C° 0 mm 1 mps 724 mmHg 85%
    05:00 +14°C° 0 mm 1 mps 724 mmHg 80%
    06:00 +15°C° 0 mm 1 mps 724 mmHg 75%
    07:00 +18°C° 0 mm 1 mps 724 mmHg 69%
    08:00 +20°C° 0.2 mm 1 mps 724 mmHg 62%
    09:00 +20°C° 0.2 mm 2 mps 724 mmHg 54%
    10:00 +21°C° 0.2 mm 2 mps 723 mmHg 46%
    11:00 +22°C° 0.1 mm 3 mps 723 mmHg 44%
    12:00 +22°C° 0.1 mm 4 mps 723 mmHg 41%
    13:00 +23°C° 0 mm 4 mps 723 mmHg 37%
    14:00 +22°C° 0 mm 4 mps 723 mmHg 40%
    15:00 +22°C° 0 mm 4 mps 722 mmHg 43%
    16:00 +21°C° 0 mm 4 mps 722 mmHg 46%
    17:00 +20°C° 0.1 mm 3 mps 722 mmHg 54%
    18:00 +18°C° 0.1 mm 2 mps 722 mmHg 63%
    19:00 +18°C° 0.1 mm 1 mps 721 mmHg 71%
    20:00 +15°C° 0 mm 1 mps 721 mmHg 75%
    21:00 +14°C° 0 mm 1 mps 721 mmHg 79%
    22:00 +13°C° 0 mm 1 mps 721 mmHg 83%
    23:00 +13°C° 0.1 mm 1 mps 721 mmHg 83%

    Tomorrow, 3 June, Wednesday

    Time Temperature Precipitation Wind Pressure Humidity
    00:00 +13°C° 0.1 mm 1 mps 721 mmHg 83%
    01:00 +12°C° 0.1 mm 2 mps 721 mmHg 83%
    02:00 +12°C° 0 mm 2 mps 720 mmHg 83%
    03:00 +12°C° 0 mm 2 mps 720 mmHg 84%
    04:00 +12°C° 0 mm 2 mps 719 mmHg 84%
    05:00 +14°C° 0 mm 2 mps 719 mmHg 78%
    06:00 +15°C° 0 mm 2 mps 719 mmHg 73%
    07:00 +18°C° 0 mm 1 mps 719 mmHg 68%
    08:00 +20°C° 0 mm 1 mps 719 mmHg 59%
    09:00 +22°C° 0 mm 1 mps 719 mmHg 49%
    10:00 +24°C° 0 mm 1 mps 719 mmHg 40%
    11:00 +25°C° 0 mm 1 mps 718 mmHg 39%
    12:00 +25°C° 0 mm 1 mps 718 mmHg 38%
    13:00 +26°C° 0 mm 1 mps 718 mmHg 36%
    14:00 +25°C° 0 mm 1 mps 717 mmHg 40%
    15:00 +24°C° 0 mm 1 mps 717 mmHg 43%
    16:00 +24°C° 0 mm 1 mps 716 mmHg 47%
    17:00 +22°C° 0.1 mm 1 mps 716 mmHg 56%
    18:00 +20°C° 0.1 mm 1 mps 716 mmHg 66%
    19:00 +19°C° 0.1 mm 1 mps 715 mmHg 76%
    20:00 +16°C° 0.1 mm 1 mps 715 mmHg 81%
    21:00 +15°C° 0.1 mm 1 mps 715 mmHg 85%
    22:00 +12°C° 0.1 mm 0 mps 715 mmHg 90%
    23:00 +13°C° 0 mm 1 mps 715 mmHg 91%

    Day after tomorrow, 4 June, Thursday

    Time Temperature Precipitation Wind Pressure Humidity
    00:00 +13°C° 0 mm 1 mps 715 mmHg 91%
    01:00 +13°C° 0 mm 1 mps 714 mmHg 91%
    02:00 +13°C° 0 mm 1 mps 714 mmHg 92%
    03:00 +13°C° 0 mm 1 mps 713 mmHg 92%
    04:00 +12°C° 0 mm 1 mps 713 mmHg 92%
    05:00 +14°C° 0 mm 1 mps 713 mmHg 87%
    06:00 +16°C° 0 mm 2 mps 713 mmHg 82%
    07:00 +17°C° 0 mm 2 mps 713 mmHg 77%
    08:00 +19°C° 0 mm 2 mps 713 mmHg 69%
    09:00 +21°C° 0 mm 2 mps 713 mmHg 61%
    10:00 +24°C° 0 mm 2 mps 713 mmHg 52%
    11:00 +24°C° 0 mm 3 mps 713 mmHg 50%
    12:00 +25°C° 0 mm 4 mps 713 mmHg 47%
    13:00 +26°C° 0 mm 5 mps 712 mmHg 45%
    14:00 +25°C° 0 mm 5 mps 712 mmHg 47%
    15:00 +23°C° 0 mm 5 mps 712 mmHg 49%
    16:00 +23°C° 0 mm 6 mps 711 mmHg 51%
    17:00 +21°C° 0 mm 5 mps 711 mmHg 58%
    18:00 +20°C° 0 mm 4 mps 710 mmHg 66%
    19:00 +18°C° 0 mm 3 mps 710 mmHg 74%
    20:00 +17°C° 0 mm 3 mps 710 mmHg 78%
    21:00 +16°C° 0 mm 2 mps 710 mmHg 82%
    22:00 +16°C° 0 mm 2 mps 710 mmHg 86%
    23:00 +15°C° 0 mm 2 mps 710 mmHg 88%

    5 June, Friday

    Time Temperature Precipitation Wind Pressure Humidity
    00:00 +15°C° 0 mm 1 mps 710 mmHg 89%
    01:00 +15°C° 0 mm 1 mps 710 mmHg 91%
    02:00 +15°C° 0.2 mm 1 mps 710 mmHg 92%
    03:00 +15°C° 0.2 mm 1 mps 710 mmHg 93%
    04:00 +15°C° 0.2 mm 1 mps 709 mmHg 94%
    05:00 +15°C° 3.5 mm 1 mps 710 mmHg 93%
    06:00 +14°C° 3.5 mm 2 mps 710 mmHg 92%
    07:00 +14°C° 3.5 mm 2 mps 710 mmHg 91%
    08:00 +14°C° 1.9 mm 2 mps 710 mmHg 91%
    09:00 +14°C° 1.9 mm 2 mps 711 mmHg 90%
    10:00 +14°C° 1.9 mm 1 mps 711 mmHg 90%
    11:00 +15°C° 0.4 mm 1 mps 712 mmHg 89%
    12:00 +15°C° 0.4 mm 1 mps 712 mmHg 87%
    13:00 +15°C° 0.4 mm 0 mps 713 mmHg 86%
    14:00 +15°C° 0.2 mm 0 mps 713 mmHg 85%
    15:00 +15°C° 0.2 mm 0 mps 714 mmHg 84%
    16:00 +15°C° 0.2 mm 0 mps 714 mmHg 84%
    17:00 +15°C° 0.1 mm 0 mps 714 mmHg 85%
    18:00 +14°C° 0.1 mm 0 mps 714 mmHg 86%
    19:00 +14°C° 0.1 mm 0 mps 715 mmHg 87%
    20:00 +13°C° 0 mm 0 mps 715 mmHg 88%
    21:00 +13°C° 0 mm 0 mps 716 mmHg 90%
    22:00 +12°C° 0 mm 0 mps 717 mmHg 91%
    23:00 +12°C° 0 mm 0 mps 717 mmHg 91%

    6 June, Saturday

    Time Temperature Precipitation Wind Pressure Humidity
    00:00 +12°C° 0 mm 0 mps 717 mmHg 92%
    01:00 +12°C° 0 mm 0 mps 718 mmHg 92%
    02:00 +12°C° 0 mm 0 mps 718 mmHg 92%
    03:00 +12°C° 0 mm 0 mps 718 mmHg 92%
    04:00 +12°C° 0 mm 0 mps 718 mmHg 92%
    05:00 +13°C° 0 mm 0 mps 719 mmHg 90%
    06:00 +14°C° 0 mm 0 mps 719 mmHg 88%
    07:00 +16°C° 0 mm 1 mps 719 mmHg 86%
    08:00 +16°C° 0.1 mm 1 mps 719 mmHg 86%
    09:00 +16°C° 0.1 mm 1 mps 720 mmHg 86%
    10:00 +16°C° 0.1 mm 1 mps 720 mmHg 86%
    11:00 +18°C° 0.2 mm 1 mps 719 mmHg 84%
    12:00 +19°C° 0.2 mm 1 mps 719 mmHg 82%
    13:00 +20°C° 0.2 mm 1 mps 719 mmHg 80%
    14:00 +21°C° 0.5 mm 1 mps 718 mmHg 79%
    15:00 +21°C° 0.5 mm 1 mps 718 mmHg 77%
    16:00 +22°C° 0.5 mm 1 mps 718 mmHg 76%
    17:00 +21°C° 0.3 mm 1 mps 718 mmHg 80%
    18:00 +20°C° 0.3 mm 1 mps 718 mmHg 84%
    19:00 +19°C° 0.3 mm 1 mps 718 mmHg 88%
    20:00 +18°C° 0 mm 1 mps 718 mmHg 90%
    21:00 +16°C° 0 mm 1 mps 718 mmHg 92%
    22:00 +15°C° 0 mm 1 mps 718 mmHg 93%
    23:00 +14°C° 0 mm 1 mps 718 mmHg 94%

    7 June, Sunday

    Time Temperature Precipitation Wind Pressure Humidity
    00:00 +14°C° 0 mm 1 mps 718 mmHg 94%
    01:00 +13°C° 0 mm 1 mps 718 mmHg 94%
    02:00 +13°C° 0 mm 1 mps 718 mmHg 94%
    03:00 +13°C° 0 mm 1 mps 718 mmHg 94%
    04:00 +13°C° 0 mm 1 mps 718 mmHg 94%
    05:00 +14°C° 0 mm 1 mps 718 mmHg 91%
    06:00 +16°C° 0 mm 1 mps 718 mmHg 88%
    07:00 +16°C° 0 mm 0 mps 719 mmHg 85%
    08:00 +19°C° 0.2 mm 1 mps 719 mmHg 79%
    09:00 +21°C° 0.2 mm 1 mps 719 mmHg 74%
    10:00 +22°C° 0.2 mm 1 mps 719 mmHg 69%
    11:00 +23°C° 0.7 mm 1 mps 719 mmHg 68%
    12:00 +23°C° 0.7 mm 2 mps 718 mmHg 67%
    13:00 +24°C° 0.7 mm 2 mps 718 mmHg 67%
    14:00 +24°C° 0.5 mm 2 mps 718 mmHg 64%
    15:00 +24°C° 0.5 mm 3 mps 717 mmHg 62%
    16:00 +25°C° 0.5 mm 3 mps 717 mmHg 59%
    17:00 +22°C° 0 mm 3 mps 717 mmHg 64%
    18:00 +21°C° 0 mm 2 mps 717 mmHg 70%
    19:00 +20°C° 0 mm 2 mps 717 mmHg 75%
    20:00 +18°C° 0.1 mm 2 mps 718 mmHg 80%
    21:00 +17°C° 0.1 mm 2 mps 718 mmHg 85%
    22:00 +16°C° 0.1 mm 2 mps 719 mmHg 90%
    23:00 +15°C° 0.2 mm 2 mps 719 mmHg 90%
    Show more